User: anonymous
Location: Unspecified
(0.0000°N, 0.0000°E)
Time: 06:34:04
(UTC+02:00)
Language:

PSLV R/B - Orbit

View from above orbital plane
View from above orbital plane
View from above satellite
View from above satellite

Ground track
Ground track

The orbit data is extracted from the following two-line orbital elements,

1 29713U 07001E   14109.87252922  .00004022  00000-0  50573-3 0  2941
2 29713 097.6449 106.8685 0024866 286.3751 073.4729 14.82396833392851
Epoch (UTC): 19 April 2014 20:56:26
Eccentricity: 0.0024866
inclination: 97.6449°
perigee height: 604 km
apogee height: 639 km
right ascension of ascending node: 106.8685°
argument of perigee: 286.3751°
revolutions per day: 14.82396833
mean anomaly at epoch: 73.4729°
orbit number at epoch: 39285

The dashed part of the orbit path shows where the satellite is in the earth's shadow,  

DLR